Location: Willingham
(52.3167°N, 0.0667°E)
Time: 04:26:30
(UTC+00:00)

ATLAS 3B R/B - Pass Details

Date: 19 May 2025
Orbit: 935 x 1258 km, 63.8° (Epoch: 13 June)

Event Time Altitude Azimuth Distance (km) Brightness Sun altitude
Exits shadow 21:30:07 13° 131° (SE) 2,903 4.4 -11.0°
Maximum altitude 21:33:18 16° 103° (ESE) 2,685 4.4 -11.3°
Drops below altitude 10° 21:37:41 10° 68° (ENE) 3,199 5.1 -11.7°
Sets 21:41:42 0° 50° (NE) 4,202 5.9 -12.0°
